This is the latest recevied weather packets stored in our database for station/object EA1GEC-10. If no packets are shown the sender has not sent any weather packets the latest 10 day(s).
| Time | Temp. | Humidity | Pressure | Rain* | Wind** | Luminosity | Snow |
|---|---|---|---|---|---|---|---|
| 1778146273 | 13.33° C | 65% | 1018 hPa | - | - | - | - |
| 1778145374 | 13.33° C | 65% | 1018.1 hPa | - | - | - | - |
| 1778144473 | 13.33° C | 65% | 1018.1 hPa | - | - | - | - |
| 1778143573 | 13.33° C | 67% | 1018.2 hPa | - | - | - | - |
| 1778142673 | 13.33° C | 68% | 1018.2 hPa | - | - | - | - |
| 1778140873 | 12.22° C | 70% | 1018.2 hPa | - | - | - | - |
| 1778139973 | 12.22° C | 72% | 1018.2 hPa | - | - | - | - |
| 1778139073 | 11.11° C | 73% | 1018.2 hPa | - | - | - | - |
| 1778138173 | 11.11° C | 74% | 1018.3 hPa | - | - | - | - |
| 1778137273 | 11.11° C | 75% | 1018.4 hPa | - | - | - | - |
| 1778136373 | 11.11° C | 75% | 1018.4 hPa | - | - | - | - |
| 1778135473 | 11.67° C | 76% | 1018.2 hPa | - | - | - | - |
| 1778134572 | 11.11° C | 77% | 1018.4 hPa | - | - | - | - |
| 1778133672 | 11.11° C | 80% | 1018.2 hPa | - | - | - | - |
| 1778132782 | 10.56° C | 81% | 1018.1 hPa | - | - | - | - |
| 1778131872 | 10.56° C | 82% | 1018.1 hPa | - | - | - | - |
| 1778130972 | 10.56° C | 83% | 1018.1 hPa | - | - | - | - |
| 1778130072 | 11.11° C | 83% | 1018.2 hPa | - | - | - | - |
| 1778129172 | 10.56° C | 83% | 1018.1 hPa | - | - | - | - |
| 1778128271 | 10.56° C | 83% | 1018.2 hPa | - | - | - | - |
| 1778127371 | 11.11° C | 82% | 1018.4 hPa | - | - | - | - |
| 1778126471 | 11.11° C | 82% | 1018.3 hPa | - | - | - | - |
| 1778125571 | 11.11° C | 82% | 1018.4 hPa | - | - | - | - |
| 1778124675 | 11.11° C | 82% | 1018.5 hPa | - | - | - | - |
| 1778123780 | 11.11° C | 81% | 1018.6 hPa | - | - | - | - |
* Rain since midnight (hover to see other rain measurements)
** Current wind speed in m/s (hover to see current wind gust speed)